SKCUBE (42789 NORAD) Tracking and Keplerian Element Data

This shows tracking and keplerian element data for the satellite.

Feedback or suggestion? Click here.




ElementValue
Catalog42789
NameSKCUBE
Epoch Orbit10173
Epoch Day113.59636269
Epoch Year2019
RAAN172.8461
Inclination97.3571
Eccentricity0.0013166
Argument of Perigee70.6654
Mean Anonmoly289.6005
Mean Motion15.22658912
Decay Rate1.199E-05
L11 42789U 17036AA 19113.59636269 .00001199 00000-0 54399-4 0 9992
L22 42789 97.3571 172.8461 0013166 70.6654 289.6005 15.22658912101731

Live tracking and technical data element details for SKCUBE (NORAD 42789). SKCUBE can be tracked NOW for your location showing map with azimuth and elevation plus other details from your city location.

Track the satellite on the map from your city or location and see movement details for azimuth, elevation, latitude, longitude, range, height, and movement on the map or in text.







IsCatalogInMostPopularTable: catalog: 42789, numindb: 212
Update: records affected: 1



GetName: 42789 SKCUBE

Hit Count: updated at: Thu, 25 Apr 2019 19:53:22 GMT